ARIANE 2 DEB, 28567

Orbit data source: Space-Track

ARIANE 2 DEB, 28567 is space debris in HEO originally from a launch on Fri, 27 Jan 1989 UTC launched from the French Guiana (FRGUI). Debris objects in space refer to the collection of defunct objects orbiting the Earth. Examples of debris include non-operational satellites, rocket bodies, and fragments generated from explosions, collisions, or faulty payload assembly.

Loading next visibility...
ARIANE 2 DEB details
Identifier
28567, 1989-006AJ
Orbit
HEO
Last TLE update2 days ago
Origin
Flag of FRArianespace (FR)
ManufacturerEADS/LV
MissionSpacecraft
Bus & MotorUnknown
MassUnknown
Launch date (UTC)
1989-01-27 (36 years ago)
Launch vehicleUnknown
Launch site
French Guiana (FRGUI)
Object type
Payload
Rocket body
Debris
Shape & HBRUnknown
Radar Cross SectionMedium (>0.1 m² and <1 m²)

Expand to show TLE details & history

TLE from 2 days ago
0 ARIANE 2 DEB
1 28567U 89006AJ  25017.08958308  .00001556  00000-0  10639-1 0  9994
2 28567   7.3683 177.6364 7098977 247.6802  26.7390  2.37289552187328
Epoch: 2025-01-17T02:08Z
Definitive object data (Epoch: 2025-01-17T02:08:59.978Z)
Latitude-0.00002°
Longitude28.26976°
Altitude9,652.428 km
Speed5.739 km/s
True Right ascension11h 49m 06s
True Declination0° 00' 00"
Sunlit
Object was in daylight at TLE epoch
Visualization TLE readout
Latitude7.27538°
Longitude109.0045°
Altitude32,167.825 km
Speed1.973 km/s
Apparent Right ascension16h 48m 04s
Apparent Declination1° 07' 44"
Sunlit
Object is in daylight
Visualization observer readout
Local Sidereal Time01:09:46
Azimuth295.404° NW
Elevation-25.583°
Doppler factor1
Orbital elements
Apogee altitude34,230.138 km
Perigee altitude511.488 km
Semi-major axis23,748.95 km
Eccentricity0.7098977
Inclination7.3683°
RAAN177.6364°
Arg. of periapsis247.6802°
True anomaly112.15455°
Mean anomaly26.739°
Eccentric anomaly62.97037°
Mean motion0.59303 °/min
BSTAR0.010639
Orbital period607.05 mins
Loading maneuver chart data...
Loading historical data...
Loading historical data...
Loading historical data...
Loading historical data...
Loading historical data...
Loading historical data...
Loading historical data...

ARIANE 2 DEB Visibility forecast

Observer location: undefined°, undefined

Span
Click to sort rows by Start time (UTC) header in descending order
Start Az.
Max El. time (UTC)
Max El. Az.
Max El.
End time (UTC)
End Az.
402 mins2025-01-19 15:03:37.918Z244.158° WSW2025-01-19 16:54:37.918Z239.865° WSW26.008°2025-01-19 21:45:37.918Z261.506° W
|